Погода в Биргандже

Непал     27°02′00″N   84°53′13″E
темп.,
°C
ветер,
м/с
пор.,
м/с
влажн.,
%
обл.,
%
осадки,
мм/ч
давл.,
гПа
погр.,
м
8 декабря, ср
ср823:45+19сз33630 0.0 101643
02:45+18сз11660 0.0 101511
05:45+17ссз11680 0.0 101511
08:45+20всв11540 0.0 1018168
11:45+25ю11410 0.0 1018778
14:45+27зсз22330 0.0 10151293
17:45+22зсз22440 0.0 101512
20:45+19ссз33510 0.0 101733
9 декабря, чт
чт923:45+18ссз22565 0.0 101815
02:45+17ссз225831 0.0 101714
05:45+16ссз225818 0.0 101711
08:45+20сз12475 0.0 1020140
11:45+25з23330 0.0 1019812
14:45+27зсз34260 0.0 10161340
17:45+21зсз34360 0.0 101736
20:45+18сз33420 0.0 101927
10 декабря, пт
пт1023:45+17сз33460 0.0 101926
02:45+16сз22490 0.0 101718
05:45+15сз33540 0.0 101724
08:45+19зсз34480 0.0 1019174
11:45+25з56280 0.0 1018748
14:45+26зсз68250 0.0 10151299
17:45+20зсз46360 0.0 101585
20:45+17сз34430 0.0 101742
11 декабря, сб
сб1123:45+15зсз33470 0.0 101727
02:45+14зсз22510 0.0 101517
05:45+13зсз22550 0.0 101611
08:45+17з22470 0.0 1019166
11:45+22з22410 0.0 1018706
14:45+24з22340 0.0 10151122
17:45+19ссз22460 0.0 101611
20:45+17с22510 0.0 101811
12 декабря, вс
вс1223:45+16с12550 0.0 101811
02:45+15ссз11580 0.0 101710
05:45+14ссз11610 0.0 101710
08:45+17с00510 0.0 1019142
11:45+23зюз21400 0.0 1018716
14:45+24з21320 0.0 10151140
17:45+20зсз22421 0.0 101511
20:45+17ссз22510 0.0 101718